SES-19

Last updated on Tue Sep 22 2026 00:03:16 GMT+0000 (Coordinated Universal Time)

1 55971U 23038B 26264.49752248 .00000084 00000+0 00000+0 0 9994 2 55971 0.0365 281.3233 0001690 248.7868 234.4876 1.00272969 13053
UTC large
Height (km)
Speed (km/s)
/
Latitude / Longitude
Inclination (degrees)
Orbital Period (minutes)
Azimuth
Elevation
Range (km)
Doppler Factor

Next 0 passes for location: London (51.5072 / 0.1276)

No passes found over London.
SES-19